Savannah, GA

12:33 PM EDT on August 20, 2017 (GMT -0400)
Savannah International

Weather History for KSAV - May, 2014

Change the Weather History Date:

Thursday, May 15, 2014

  Actual Average Record
Temperature  
Mean Temperature 72 °F 73 °F  
Max Temperature 79 °F 85 °F 98 °F (1995)
Min Temperature 64 °F 62 °F 51 °F (2002)
Degree Days  
Heating Degree Days 0 0  
Month to date heating degree days 0 6  
Since 1 July heating degree days 1682 1809  
Cooling Degree Days 7 8  
Month to date cooling degree days 157 100  
Year to date cooling degree days 325 236  
Growing Degree Days 22 (Base 50)    
Moisture  
Dew Point 70 °F    
Average Humidity 86    
Maximum Humidity 94    
Minimum Humidity 78    
Precipitation  
Precipitation 0.48 in 0.08 in 3.29 in (1969)
Month to date precipitation 2.59 1.25  
Year to date precipitation 14.90 14.53  
Sea Level Pressure  
Sea Level Pressure 29.93 in    
Wind  
Wind Speed 13 mph (SSW)    
Max Wind Speed 21 mph    
Max Gust Speed 25 mph    
Visibility 9 miles    
Events Rain , Thunderstorm    
T = Trace of Precipitation, MM = Missing Value Source: NWS Daily Summary

Daily Weather History Graph

Daily Weather History Graph

Search for Another Location

Airport or City:

Trip Planner

Search our weather history database for the weather conditions in past years. The results will help you decide how hot, cold, wet, or windy it might be!

Date:

Astronomy

May. 15, 2014 Rise Set
Actual Time 6:27 AM EDT 8:15 PM EDT
Civil Twilight 6:00 AM EDT 8:42 PM EDT
Nautical Twilight 5:27 AM EDT 9:14 PM EDT
Astronomical Twilight 4:53 AM EDT 9:49 PM EDT
Moon 9:22 PM EDT (5/15) 7:11 AM EDT (5/15)
Length of Visible Light 14h 42m
Length of Day
13h 48m
Full, 99% of the Moon is Illuminated
May 15
Full
May 21
Last Quarter
May 28
New
Jun 5
First Quarter
Jun 13
Full

Hourly Weather History & Observations

Time (EDT) Temp. Dew Point Humidity Pressure Visibility Wind Dir Wind Speed Gust Speed Precip Events Conditions
12:53 AM 78.1 °F 72.0 °F 81% 30.04 in 10.0 mi SSE 12.7 mph - N/A   Overcast
1:53 AM 77.0 °F 72.0 °F 84% 30.01 in 10.0 mi SSE 15.0 mph 24.2 mph 0.00 in   Overcast
2:53 AM 77.0 °F 72.0 °F 84% 29.99 in 10.0 mi SSE 12.7 mph - 0.00 in   Overcast
3:25 AM 77.0 °F 71.6 °F 83% 29.98 in 10.0 mi SSE 16.1 mph 24.2 mph N/A   Overcast
3:53 AM 77.0 °F 72.0 °F 84% 29.97 in 10.0 mi SSE 13.8 mph - N/A   Overcast
4:32 AM 77.0 °F 73.4 °F 89% 29.97 in 10.0 mi SSE 12.7 mph - N/A   Overcast
4:50 AM 77.0 °F 71.6 °F 83% 29.96 in 10.0 mi SSE 17.3 mph 24.2 mph N/A   Mostly Cloudy
4:53 AM 78.1 °F 72.0 °F 81% 29.96 in 10.0 mi SSE 17.3 mph 24.2 mph N/A   Mostly Cloudy
5:53 AM 77.0 °F 72.0 °F 84% 29.96 in 10.0 mi SSE 12.7 mph - N/A Thunderstorm Thunderstorm
6:29 AM 77.0 °F 71.6 °F 83% 29.96 in 10.0 mi South 17.3 mph - N/A   Overcast
6:53 AM 77.0 °F 72.0 °F 84% 29.98 in 10.0 mi South 13.8 mph - N/A   Overcast
7:53 AM 77.0 °F 72.0 °F 84% 29.99 in 10.0 mi South 15.0 mph - N/A   Overcast
8:53 AM 77.0 °F 72.0 °F 84% 29.98 in 9.0 mi South 13.8 mph - 0.00 in Rain Light Rain
9:53 AM 77.0 °F 72.0 °F 84% 29.98 in 9.0 mi South 11.5 mph - 0.00 in Rain Light Rain
10:53 AM 77.0 °F 73.9 °F 90% 29.98 in 9.0 mi South 10.4 mph - 0.01 in Rain Light Rain
11:53 AM 78.1 °F 73.0 °F 84% 29.96 in 10.0 mi South 13.8 mph - 0.00 in Rain Light Rain
12:53 PM 75.0 °F 71.1 °F 87% 29.95 in 4.0 mi South 12.7 mph - 0.11 in Rain Heavy Rain
1:27 PM 75.2 °F 73.4 °F 94% 29.94 in 6.0 mi South 8.1 mph - 0.06 in Rain Rain
1:45 PM 75.2 °F 73.4 °F 94% 29.92 in 6.0 mi SSW 3.5 mph - 0.08 in Rain Rain
1:53 PM 75.9 °F 73.0 °F 91% 29.91 in 6.0 mi South 6.9 mph - 0.10 in Rain Rain
2:16 PM 75.2 °F 71.6 °F 89% 29.91 in 10.0 mi South 5.8 mph - 0.02 in Rain Light Rain
2:47 PM 77.0 °F 73.4 °F 89% 29.89 in 9.0 mi SSE 16.1 mph 20.7 mph 0.03 in   Mostly Cloudy
2:53 PM 75.9 °F 72.0 °F 87% 29.89 in 8.0 mi SSE 15.0 mph - 0.03 in Rain Light Rain
3:53 PM 78.1 °F 73.0 °F 84% 29.89 in 10.0 mi SSW 12.7 mph - 0.00 in   Overcast
4:08 PM 77.0 °F 71.6 °F 83% 29.89 in 10.0 mi South 13.8 mph - 0.00 in Rain Light Rain
4:37 PM 77.0 °F 73.4 °F 89% 29.87 in 10.0 mi SSW 8.1 mph - 0.01 in Rain Light Rain
4:48 PM 78.8 °F 73.4 °F 83% 29.87 in 10.0 mi South 12.7 mph 20.7 mph 0.01 in   Mostly Cloudy
4:53 PM 78.1 °F 73.0 °F 84% 29.87 in 10.0 mi South 13.8 mph 20.7 mph 0.01 in   Mostly Cloudy
5:29 PM 78.8 °F 71.6 °F 78% 29.87 in 10.0 mi SSW 11.5 mph - N/A   Mostly Cloudy
5:53 PM 78.1 °F 72.0 °F 81% 29.86 in 10.0 mi South 11.5 mph - N/A   Overcast
6:34 PM 77.0 °F 71.6 °F 83% 29.87 in 10.0 mi South 8.1 mph - N/A Thunderstorm Thunderstorm
6:53 PM 75.9 °F 71.1 °F 85% 29.88 in 10.0 mi SSW 9.2 mph - 0.00 in Thunderstorm Thunderstorm
7:09 PM 75.2 °F 71.6 °F 89% 29.89 in 1.8 mi SW 11.5 mph 17.3 mph 0.04 in Rain , Thunderstorm Heavy Thunderstorms and Rain
7:11 PM 75.2 °F 71.6 °F 89% 29.89 in 1.0 mi SW 13.8 mph 17.3 mph 0.07 in Rain , Thunderstorm Heavy Thunderstorms and Rain
7:32 PM 73.4 °F 69.8 °F 88% 29.87 in 2.5 mi SSW 13.8 mph 20.7 mph 0.21 in Rain , Thunderstorm Thunderstorms and Rain
7:40 PM 73.4 °F 69.8 °F 88% 29.88 in 4.0 mi West 11.5 mph 24.2 mph 0.21 in Rain , Thunderstorm Light Thunderstorms and Rain
7:49 PM 73.4 °F 69.8 °F 88% 29.88 in 5.0 mi West 6.9 mph - 0.22 in Rain Light Rain
7:53 PM 73.0 °F 70.0 °F 90% 29.88 in 5.0 mi WNW 9.2 mph - 0.22 in Rain Light Rain
8:02 PM 73.4 °F 69.8 °F 88% 29.88 in 10.0 mi WNW 6.9 mph - 0.00 in   Overcast
8:36 PM 73.4 °F 69.8 °F 88% 29.89 in 10.0 mi West 6.9 mph - 0.00 in   Mostly Cloudy
8:53 PM 73.0 °F 69.1 °F 87% 29.90 in 10.0 mi West 9.2 mph - 0.00 in   Mostly Cloudy
9:15 PM 71.6 °F 68.0 °F 88% 29.91 in 10.0 mi WNW 13.8 mph - N/A   Overcast
9:53 PM 71.1 °F 66.9 °F 87% 29.93 in 10.0 mi WNW 11.5 mph 18.4 mph N/A   Overcast
10:10 PM 69.8 °F 66.2 °F 88% 29.94 in 10.0 mi WNW 13.8 mph - N/A   Overcast
10:28 PM 68.0 °F 64.4 °F 88% 29.95 in 10.0 mi WNW 13.8 mph - N/A   Overcast
10:53 PM 66.9 °F 62.1 °F 84% 29.96 in 10.0 mi WNW 13.8 mph - N/A   Overcast
11:22 PM 66.2 °F 60.8 °F 83% 29.97 in 10.0 mi WNW 11.5 mph - N/A   Overcast
11:33 PM 66.2 °F 57.2 °F 73% 29.97 in 10.0 mi WNW 12.7 mph 21.9 mph N/A   Overcast
11:53 PM 64.9 °F 57.9 °F 78% 29.96 in 10.0 mi NW 11.5 mph 20.7 mph N/A   Overcast